TimeCDT,TemperatureF,Dew PointF,Humidity,Sea Level PressureIn,VisibilityMPH,Wind Direction,Wind SpeedMPH,Gust SpeedMPH,PrecipitationIn,Events,Conditions,WindDirDegrees,DateUTC
12:15 AM,30.7,27.5,88,30.08,3.0,North,12.7,-,N/A,,Overcast,10,2013-03-24 05:15:00
12:35 AM,30.7,28.2,90,30.08,3.0,North,13.8,17.3,N/A,Snow,Light Snow,360,2013-03-24 05:35:00
12:55 AM,30.2,26.6,86,30.08,7.0,North,19.6,26.5,N/A,,Overcast,360,2013-03-24 05:55:00
1:15 AM,29.7,26.2,87,30.08,2.0,North,20.7,26.5,N/A,Snow,Light Snow,360,2013-03-24 06:15:00
1:35 AM,29.1,26.2,89,30.07,2.0,North,20.7,26.5,N/A,Snow,Light Snow,360,2013-03-24 06:35:00
1:55 AM,28.9,26.2,90,30.07,2.0,North,20.7,24.2,N/A,Snow,Light Snow,360,2013-03-24 06:55:00
2:35 AM,28.8,25.9,89,30.08,4.0,North,17.3,23.0,N/A,,Overcast,350,2013-03-24 07:35:00
2:55 AM,28.4,25.2,88,30.08,10.0,North,17.3,25.3,N/A,,Overcast,350,2013-03-24 07:55:00
3:15 AM,28.0,25.2,89,30.08,3.0,North,16.1,-,N/A,,Overcast,350,2013-03-24 08:15:00
3:35 AM,27.5,24.8,90,30.07,3.0,NNW,20.7,-,N/A,Snow,Light Snow,340,2013-03-24 08:35:00
3:55 AM,27.3,24.3,88,30.07,5.0,NNW,18.4,-,N/A,,Overcast,340,2013-03-24 08:55:00
4:15 AM,27.1,23.9,88,30.06,3.0,NNW,18.4,24.2,N/A,,Overcast,340,2013-03-24 09:15:00
4:35 AM,26.6,23.9,90,30.06,3.0,NNW,15.0,25.3,N/A,Snow,Light Snow,340,2013-03-24 09:35:00
4:55 AM,26.6,23.9,90,30.06,4.0,NNW,15.0,21.9,N/A,,Overcast,330,2013-03-24 09:55:00
5:15 AM,26.4,23.0,87,30.06,5.0,NNW,15.0,-,N/A,,Overcast,340,2013-03-24 10:15:00
5:35 AM,26.1,23.0,88,30.06,5.0,NNW,16.1,21.9,N/A,,Overcast,340,2013-03-24 10:35:00
5:55 AM,26.4,23.0,87,30.06,7.0,NNW,19.6,-,N/A,,Overcast,330,2013-03-24 10:55:00
6:15 AM,26.6,22.6,85,30.06,10.0,NNW,17.3,23.0,N/A,,Overcast,330,2013-03-24 11:15:00
6:35 AM,26.6,22.1,83,30.06,10.0,NNW,17.3,25.3,N/A,,Overcast,330,2013-03-24 11:35:00
6:55 AM,26.6,21.9,82,30.06,10.0,NNW,20.7,25.3,N/A,,Overcast,330,2013-03-24 11:55:00
7:15 AM,26.4,21.7,82,30.06,10.0,NNW,19.6,26.5,N/A,,Overcast,330,2013-03-24 12:15:00
7:35 AM,26.2,21.6,82,30.06,10.0,NNW,19.6,25.3,N/A,,Overcast,330,2013-03-24 12:35:00
7:55 AM,26.2,21.6,82,30.06,10.0,NNW,19.6,25.3,N/A,,Overcast,330,2013-03-24 12:55:00
8:15 AM,25.9,21.2,82,30.07,10.0,NNW,18.4,25.3,N/A,,Overcast,330,2013-03-24 13:15:00
8:35 AM,25.9,21.2,82,30.07,7.0,NNW,18.4,25.3,N/A,,Overcast,330,2013-03-24 13:35:00
8:55 AM,25.7,20.8,82,30.07,10.0,NNW,19.6,24.2,N/A,,Overcast,330,2013-03-24 13:55:00
9:15 AM,25.7,20.3,80,30.07,10.0,NNW,19.6,27.6,N/A,,Overcast,330,2013-03-24 14:15:00
9:35 AM,24.8,19.2,79,30.07,10.0,NNW,21.9,27.6,N/A,,Overcast,330,2013-03-24 14:35:00
9:55 AM,24.8,18.3,76,30.07,10.0,NNW,17.3,29.9,N/A,,Overcast,330,2013-03-24 14:55:00
10:15 AM,24.8,17.6,74,30.06,10.0,NNW,19.6,27.6,N/A,,Overcast,330,2013-03-24 15:15:00
10:35 AM,24.8,16.7,71,30.07,10.0,NNW,21.9,28.8,N/A,,Overcast,330,2013-03-24 15:35:00
10:55 AM,25.0,17.1,72,30.07,10.0,NNW,24.2,29.9,N/A,,Overcast,340,2013-03-24 15:55:00
11:15 AM,25.5,17.6,72,30.07,10.0,NNW,21.9,28.8,N/A,,Overcast,330,2013-03-24 16:15:00
11:35 AM,26.4,18.7,73,30.07,10.0,NNW,20.7,27.6,N/A,,Overcast,330,2013-03-24 16:35:00
11:55 AM,27.3,19.4,72,30.07,10.0,NW,21.9,26.5,N/A,,Scattered Clouds,320,2013-03-24 16:55:00
12:15 PM,27.5,19.8,73,30.07,10.0,NNW,19.6,27.6,N/A,,Scattered Clouds,330,2013-03-24 17:15:00
12:35 PM,28.2,19.2,69,30.06,10.0,NNW,25.3,32.2,N/A,,Scattered Clouds,340,2013-03-24 17:35:00
12:55 PM,28.0,19.4,70,30.06,10.0,NNW,19.6,28.8,N/A,,Mostly Cloudy,330,2013-03-24 17:55:00
1:15 PM,28.4,19.4,69,30.06,10.0,NNW,19.6,33.4,N/A,,Overcast,340,2013-03-24 18:15:00
1:35 PM,28.4,19.8,70,30.06,10.0,North,21.9,27.6,N/A,,Overcast,350,2013-03-24 18:35:00
1:55 PM,28.4,19.4,69,30.06,10.0,NNW,21.9,28.8,N/A,,Overcast,340,2013-03-24 18:55:00
2:15 PM,29.3,20.1,69,30.05,10.0,NNW,24.2,-,N/A,,Overcast,340,2013-03-24 19:15:00
2:35 PM,29.1,19.8,68,30.05,10.0,NNW,19.6,27.6,N/A,,Overcast,330,2013-03-24 19:35:00
2:55 PM,29.1,21.0,72,30.05,10.0,NNW,17.3,26.5,N/A,Snow,Light Snow,330,2013-03-24 19:55:00
3:15 PM,29.5,21.2,71,30.05,10.0,NNW,23.0,27.6,N/A,,Overcast,340,2013-03-24 20:15:00
3:35 PM,29.5,20.3,69,30.05,10.0,NNW,19.6,27.6,N/A,,Overcast,330,2013-03-24 20:35:00
3:55 PM,29.5,21.4,72,30.05,10.0,NNW,19.6,29.9,N/A,,Overcast,330,2013-03-24 20:55:00
4:15 PM,29.3,20.7,70,30.04,10.0,NNW,19.6,26.5,N/A,,Overcast,330,2013-03-24 21:15:00
4:35 PM,29.3,19.0,66,30.05,10.0,NW,21.9,26.5,N/A,,Overcast,320,2013-03-24 21:35:00
4:55 PM,28.9,20.1,70,30.05,10.0,NW,16.1,25.3,N/A,,Overcast,320,2013-03-24 21:55:00
5:15 PM,28.8,19.4,68,30.05,10.0,NW,18.4,26.5,N/A,,Overcast,320,2013-03-24 22:15:00
5:35 PM,29.7,19.8,67,30.05,10.0,NW,18.4,25.3,N/A,,Overcast,310,2013-03-24 22:35:00
5:55 PM,28.8,19.2,68,30.05,10.0,NW,16.1,26.5,N/A,,Overcast,310,2013-03-24 22:55:00
6:15 PM,28.8,18.1,65,30.05,10.0,NW,23.0,28.8,N/A,,Overcast,310,2013-03-24 23:15:00
6:35 PM,28.4,18.9,67,30.06,10.0,NNW,18.4,25.3,N/A,Snow,Light Snow,330,2013-03-24 23:35:00
6:55 PM,28.2,19.6,70,30.07,10.0,NW,18.4,24.2,N/A,Snow,Light Snow,320,2013-03-24 23:55:00
7:15 PM,27.9,19.4,71,30.07,10.0,NNW,17.3,27.6,N/A,Snow,Light Snow,330,2013-03-25 00:15:00
7:35 PM,27.5,19.4,72,30.08,10.0,NW,17.3,24.2,N/A,Snow,Light Snow,320,2013-03-25 00:35:00
7:55 PM,27.5,20.3,74,30.08,10.0,NW,18.4,25.3,N/A,Snow,Light Snow,320,2013-03-25 00:55:00
8:15 PM,27.1,20.1,75,30.08,10.0,NW,17.3,21.9,N/A,Snow,Light Snow,320,2013-03-25 01:15:00
8:35 PM,26.6,20.3,77,30.09,10.0,NW,15.0,20.7,N/A,Snow,Light Snow,320,2013-03-25 01:35:00
8:55 PM,26.6,21.6,81,30.09,10.0,NW,15.0,-,N/A,,Overcast,320,2013-03-25 01:55:00
9:15 PM,27.0,21.7,81,30.09,10.0,NW,17.3,21.9,N/A,,Overcast,320,2013-03-25 02:15:00
9:35 PM,27.1,21.2,78,30.09,10.0,NW,13.8,20.7,N/A,Snow,Light Snow,320,2013-03-25 02:35:00
9:55 PM,26.6,21.4,81,30.10,7.0,NW,12.7,24.2,N/A,Snow,Light Snow,310,2013-03-25 02:55:00
10:15 PM,26.4,22.1,84,30.09,10.0,NW,12.7,-,N/A,Snow,Light Snow,310,2013-03-25 03:15:00
10:35 PM,26.2,22.1,84,30.09,7.0,NW,13.8,19.6,N/A,Snow,Light Snow,310,2013-03-25 03:35:00
10:55 PM,26.4,22.1,84,30.09,5.0,NW,13.8,20.7,N/A,Snow,Light Snow,320,2013-03-25 03:55:00
11:15 PM,26.4,23.0,87,30.09,3.0,NW,12.7,-,N/A,Snow,Light Snow,310,2013-03-25 04:15:00
11:35 PM,26.4,23.0,87,30.09,7.0,NW,15.0,19.6,N/A,Snow,Light Snow,310,2013-03-25 04:35:00
11:55 PM,26.6,23.0,86,30.09,7.0,NW,15.0,19.6,N/A,Snow,Light Snow,320,2013-03-25 04:55:00